FREGAT DEB, 45889

Orbit data source: Space-Track

FREGAT DEB, 45889 is space debris in LEO originally from a launch on Mon, 18 Jul 2011 UTC launched from the Tyuratam Missile And Space Complex (TTMTR). Debris objects in space refer to the collection of defunct objects orbiting the Earth. Examples of debris include non-operational satellites, rocket bodies, and fragments generated from explosions, collisions, or faulty payload assembly.

Loading next visibility...
Identifier
45889, 2011-037DJ
Orbit
LEO
Country
Flag of CISCIS
Related business
Manufacturer
Lavochkin
Mission
Spacecraft
Bus & Motor
Unknown
Mass
Unknown
Launch date (UTC)
2011-07-18 (15 years ago)
Launch vehicle
Unknown
Launch site
Tyuratam Missile And Space Complex (TTMTR)
Object type
Payload
Rocket body
Debris
Shape & HBR
Unknown shape, 0.1 m
Radar Cross Section
Medium (>0.1 m² and <1 m²)

Expand to show TLE details & history
Last TLE update: 10 hours ago

TLE from 10 hours ago
0 FREGAT DEB
1 45889U 11037DJ  26166.12226959  .00083682  00000-0  52395-2 0  9996
2 45889  51.3075 325.7384 0460423 315.8362  40.6666 14.49508911263287
Epoch: 2026-06-15T02:56Z
TLE epoch observation values (Epoch: 2026-06-15T02:56:04.092Z)
Latitude
-0.0001°
Longitude
18.30808°
Altitude
486.542 km
Speed
7.751 km/s
True Right ascension
21h 42m 57s
True Declination
0° 00' 00"
Sunlit
Object was in full shadow at epoch
Visualization orbit readout
Latitude
Unknown
Longitude
Unknown
Altitude
Unknown
Speed
Unknown
Apparent Right ascension
Unknown
Apparent Declination
Unknown
Sunlit
N/A
Visualization observer readout
Local Sidereal Time
00:00:46
Azimuth
Unknown
Elevation
Unknown
Doppler factor
Unknown
Orbital elements
Apogee altitude
1,054.967 km
Perigee altitude
400.62 km
Semi-major axis
7,105.93 km
Eccentricity
0.04604
Inclination
51.3075°
RAAN
325.7384°
Arg. of periapsis
315.8362°
True anomaly
44.25905°
Mean anomaly
40.6666°
Eccentric anomaly
42.44703°
Mean motion
3.62336 °/min
Orbital period
99.36 mins
BSTAR
0.0052395
Loading maneuver chart data...
Computing Atmospheric mass density...
Loading historical data...
Loading historical data...
Loading historical data...
Loading historical data...
Loading historical data...
Loading historical data...
Loading historical data...

Documentation

Showing up to 5 results
|